TimePDT,TemperatureF,Dew PointF,Humidity,Sea Level PressureIn,VisibilityMPH,Wind Direction,Wind SpeedMPH,Gust SpeedMPH,PrecipitationIn,Events,Conditions,WindDirDegrees,DateUTC
12:56 AM,66.9,60.1,79,30.01,10.0,SSW,10.4,-,N/A,,Partly Cloudy,210,2012-10-19 07:56:00
1:56 AM,66.0,60.1,81,30.03,10.0,SW,12.7,-,N/A,,Partly Cloudy,220,2012-10-19 08:56:00
2:56 AM,64.9,60.1,84,30.04,10.0,WSW,10.4,-,N/A,,Mostly Cloudy,240,2012-10-19 09:56:00
3:56 AM,64.9,60.1,84,30.01,10.0,SSE,6.9,-,N/A,,Mostly Cloudy,150,2012-10-19 10:56:00
4:56 AM,64.9,60.1,84,30.02,10.0,SE,4.6,-,N/A,,Mostly Cloudy,130,2012-10-19 11:56:00
5:56 AM,66.0,60.1,81,30.02,10.0,SE,4.6,-,N/A,,Mostly Cloudy,130,2012-10-19 12:56:00
6:56 AM,66.0,60.1,81,30.03,10.0,South,5.8,-,N/A,,Mostly Cloudy,190,2012-10-19 13:56:00
7:56 AM,64.9,60.1,84,30.04,10.0,WNW,5.8,-,N/A,,Mostly Cloudy,300,2012-10-19 14:56:00
8:56 AM,66.0,59.0,78,30.04,10.0,SSE,10.4,-,N/A,,Mostly Cloudy,150,2012-10-19 15:56:00
9:46 AM,66.2,59.0,78,30.06,10.0,SSE,8.1,-,N/A,,Overcast,150,2012-10-19 16:46:00
9:56 AM,66.0,59.0,78,30.06,10.0,SSE,9.2,-,N/A,,Overcast,160,2012-10-19 16:56:00
10:56 AM,66.9,59.0,76,30.05,10.0,SW,4.6,-,N/A,,Overcast,230,2012-10-19 17:56:00
11:56 AM,68.0,59.0,73,30.04,10.0,WSW,4.6,-,N/A,,Overcast,240,2012-10-19 18:56:00
12:56 PM,68.0,59.0,73,30.02,10.0,NW,10.4,-,N/A,,Overcast,320,2012-10-19 19:56:00
1:56 PM,69.8,59.0,68,29.98,10.0,NW,12.7,-,N/A,,Partly Cloudy,310,2012-10-19 20:56:00
2:56 PM,68.0,57.9,70,29.97,10.0,WNW,15.0,-,N/A,,Scattered Clouds,290,2012-10-19 21:56:00
3:56 PM,66.9,57.0,70,29.97,10.0,West,16.1,-,N/A,,Scattered Clouds,280,2012-10-19 22:56:00
4:56 PM,64.0,57.0,78,29.95,10.0,WNW,15.0,-,N/A,,Scattered Clouds,290,2012-10-19 23:56:00
5:56 PM,62.1,55.9,80,29.94,9.0,West,18.4,-,N/A,Fog,Scattered Clouds,280,2012-10-20 00:56:00
6:56 PM,60.8,55.4,82,29.94,9.0,WNW,15.0,-,N/A,Fog,Mostly Cloudy,290,2012-10-20 01:56:00
7:56 PM,59.0,55.0,87,29.95,9.0,WNW,19.6,-,N/A,Fog,Overcast,290,2012-10-20 02:56:00
8:56 PM,57.9,54.0,87,29.95,10.0,WNW,15.0,-,N/A,,Overcast,290,2012-10-20 03:56:00
9:56 PM,57.0,52.0,83,29.96,10.0,West,17.3,-,N/A,,Mostly Cloudy,280,2012-10-20 04:56:00
10:56 PM,57.0,52.0,83,29.96,10.0,West,8.1,-,N/A,,Overcast,260,2012-10-20 05:56:00
11:56 PM,57.9,52.0,81,29.96,10.0,West,10.4,-,N/A,,Overcast,280,2012-10-20 06:56:00